Overview Statistics Trail Chart Weather Telemetry Raw packets
 

This is the latest recevied weather packets stored in our database for station/object KR4KUV. If no packets are shown the sender has not sent any weather packets the latest 10 day(s).

<< 2 3 4 5 6 7 8 >>
Time Temp. Humidity Pressure Rain* Wind** Luminosity Snow
1788546616 36.67° C 52% 1017.9 hPa 0 mm - 168 W/m² -
1788546312 36.11° C 55% 1018 hPa 0 mm - 699 W/m² -
1788546011 35° C 59% 1018 hPa 0 mm - 706 W/m² -
1788545708 35.56° C 56% 1018 hPa 0 mm - 689 W/m² -
1788545402 35.56° C 55% 1018.1 hPa 0 mm - 697 W/m² -
1788545096 35° C 57% 1018 hPa 0 mm - 690 W/m² -
1788544796 34.44° C 58% 1018.4 hPa 0 mm - 471 W/m² -
1788544496 35° C 57% 1018.4 hPa 0 mm - 302 W/m² -
1788544190 35° C 57% 1018.3 hPa 0 mm - 683 W/m² -
1788543885 34.44° C 58% 1018.3 hPa 0 mm - 698 W/m² -
1788543581 35° C 58% 1018.4 hPa 0 mm - 686 W/m² -
1788543276 35° C 58% 1018.2 hPa 0 mm - 685 W/m² -
1788542971 35° C 58% 1018.3 hPa 0 mm - 679 W/m² -
1788542666 34.44° C 59% 1018.4 hPa 0 mm - 686 W/m² -
1788542361 35° C 57% 1018.4 hPa 0 mm - 679 W/m² -
1788542056 34.44° C 59% 1018.6 hPa 0 mm - 681 W/m² -
1788541752 33.89° C 63% 1018.6 hPa 0 mm - 679 W/m² -
1788541447 33.89° C 63% 1018.7 hPa 0 mm - 675 W/m² -
1788541142 33.89° C 64% 1018.8 hPa 0 mm - 671 W/m² -
1788540836 33.33° C 64% 1019 hPa 0 mm - 664 W/m² -
1788540536 33.33° C 65% 1018.9 hPa 0 mm - 659 W/m² -
1788540235 33.33° C 66% 1018.9 hPa 0 mm - 656 W/m² -
1788539932 33.33° C 65% 1019 hPa 0 mm - 648 W/m² -
1788539631 32.78° C 67% 1019.3 hPa 0 mm - 641 W/m² -
1788539331 33.33° C 66% 1019.3 hPa 0 mm - 637 W/m² -

* Rain latest hour (hover to see other rain measurements)
** Current wind speed in m/s (hover to see current wind gust speed)